RH
44 54 63 67 72 81 89 89 83 80 72 66 68 67 67 68 55 32 18 14 13 11 9 8 8 8 9 9 9 9 9 8 7 6 5 5 4 4 3 3 3 4
79 82 80 81 87 91 91 90 88 81 69 66 70 68 68 71 54 28 16 14 13 12 10 7 6 6 7 7 7 7 7 6 5 5 4 3 3 3 3 3 3 3
79 75 75 82 86 85 82 78 73 70 69 73 77 74 73 74 58 32 18 14 12 12 11 9 7 5 5 5 5 6 5 5 4 3 3 2 2 2 2 3 3 3
67 67 68 72 74 75 78 76 68 65 71 80 82 80 82 82 61 31 19 16 13 13 12 10 8 6 5 4 4 4 4 4 4 3 3 2 2 2 2 2 3 3
50 51 52 56 62 70 78 76 64 62 75 85 84 79 86 90 62 29 21 19 16 18 17 17 16 13 11 9 6 5 4 3 4 3 3 2 2 2 2 3 3 4
32 34 35 34 38 55 73 73 60 59 67 74 81 89 96 90 58 29 26 25 22 25 25 26 27 26 25 21 15 12 8 6 5 4 4 4 4 6 6 8 10 10
25 24 24 21 25 46 72 76 65 60 55 51 64 82 89 81 59 40 36 33 31 35 38 41 42 37 34 32 27 22 17 14 12 11 12 11 11 13 15 17 18 20
28 21 15 16 26 43 59 63 57 56 50 39 38 49 63 74 72 63 56 52 51 53 54 53 49 43 39 36 34 33 30 27 25 23 23 22 22 23 23 24 25 27
33 23 14 14 22 29 34 37 40 46 49 40 28 26 41 61 70 69 67 66 68 72 73 67 56 48 44 41 39 40 41 40 39 39 37 34 33 31 29 30 31 32
37 27 17 13 15 16 18 25 32 37 43 45 41 37 42 52 60 62 63 64 69 76 81 81 73 61 52 48 45 43 43 44 43 44 45 44 43 42 39 38 37 37
37 31 22 18 18 15 16 23 30 32 34 41 48 51 51 51 52 54 55 60 69 78 82 85 84 74 62 56 54 50 46 45 44 42 42 43 45 47 48 47 44 41
36 33 29 26 23 20 20 21 24 24 22 21 26 31 33 35 41 48 53 59 72 82 86 89 90 83 72 65 64 62 56 51 49 48 46 45 44 45 47 50 50 49
39 33 32 32 29 26 26 25 23 20 17 17 18 18 18 20 32 52 62 68 79 88 92 96 94 88 82 75 71 72 69 62 57 55 53 53 53 52 52 54 59 66
44 39 36 39 40 35 29 27 27 23 20 21 20 18 16 11 24 58 79 82 88 95 98 99 97 96 94 86 80 81 80 74 67 63 62 62 64 66 64 61 62 69
35 40 43 48 54 51 37 26 24 22 20 20 17 17 19 13 15 37 58 72 84 93 100 103 99 98 100 95 93 93 90 85 81 79 79 79 80 83 81 74 67 67
17 24 33 42 54 58 43 25 19 18 17 18 17 16 18 18 17 14 23 56 87 91 94 102 96 93 99 100 99 101 100 97 93 89 86 82 79 80 79 74 68 66
13 14 17 23 32 36 29 20 18 19 19 19 21 20 18 18 21 15 12 42 84 95 93 97 95 94 99 100 98 98 97 97 95 91 85 79 74 74 73 71 69 66
13 13 13 14 16 16 14 13 14 18 21 22 22 24 23 20 21 23 16 23 53 74 77 82 92 100 98 95 96 93 86 85 86 84 82 84 83 77 69 66 66 61
12 14 15 14 13 13 13 13 14 16 20 22 23 25 29 27 24 25 23 20 28 38 42 51 72 89 90 88 96 99 92 88 85 81 82 86 79 64 52 49 49 43
16 22 27 23 17 15 13 12 15 18 19 20 24 28 31 33 31 28 27 26 28 31 33 34 42 52 53 55 76 97 102 99 96 93 92 87 74 59 48 40 36 35
21 33 44 41 31 27 23 19 17 20 21 25 32 36 36 35 37 37 36 36 37 39 39 32 33 47 53 50 60 76 81 83 88 88 81 74 67 61 52 43 38 36
24 37 45 40 34 38 42 38 34 32 31 33 39 43 41 40 42 44 45 48 51 51 46 39 42 61 77 77 72 70 65 64 69 69 63 61 59 55 49 46 43 35
21 29 30 27 32 43 51 56 61 63 58 50 46 45 44 48 53 53 51 54 57 57 56 54 54 62 72 75 76 76 74 71 70 67 64 63 59 54 52 49 42 37
28 21 16 23 38 52 67 82 89 90 87 77 68 64 61 61 62 61 62 63 63 63 62 60 60 64 66 67 71 77 82 84 84 81 77 71 64 61 60 53 47 50
29 16 13 28 44 56 79 99 100 97 100 96 88 82 78 75 73 71 72 72 70 70 68 63 64 68 69 68 73 81 86 91 94 93 89 84 78 74 68 61 60 65
16 11 12 25 39 54 79 100 101 98 100 100 99 98 94 91 89 84 79 77 77 79 81 83 83 82 77 74 78 86 90 93 96 97 96 95 90 85 79 75 74 72
Wind_Speed
19 19 21 22 22 23 22 22 22 23 23 22 19 19 20 19 18 16 14 14 15 16 17 19 22 24 26 27 27 28 27 27 26 25 24 23 22 21 20 18 17 16
21 21 23 23 21 20 20 19 20 20 21 21 19 18 18 18 17 16 14 14 15 16 17 18 21 22 24 25 26 26 26 26 25 24 23 22 21 20 18 17 16 15
23 23 24 22 19 19 19 20 21 20 18 19 19 18 18 18 18 16 15 15 15 16 17 18 19 21 22 23 24 24 24 24 24 23 23 22 21 20 18 17 16 15
20 19 19 17 16 17 19 20 20 19 18 19 20 20 20 20 19 17 15 15 15 15 16 17 18 20 21 22 22 23 23 24 24 24 23 22 21 20 19 17 16 15
15 15 15 15 15 16 18 19 19 19 18 19 21 23 24 23 20 17 15 15 15 15 15 16 17 18 20 21 22 23 24 24 25 24 23 22 21 19 18 17 16 16
14 13 14 14 13 14 17 18 17 18 18 18 18 22 24 23 19 16 14 14 15 16 16 17 18 19 20 21 22 23 24 24 24 24 23 22 20 19 18 17 17 16
13 12 12 12 12 12 14 16 16 17 17 17 15 14 15 15 15 15 15 15 17 18 19 19 20 20 21 21 22 23 23 23 23 22 22 21 20 19 19 18 17 16
13 11 11 12 12 11 13 15 16 16 16 17 16 13 11 11 13 14 16 17 18 20 21 21 21 21 22 22 22 22 22 22 22 22 21 21 21 21 20 19 18 17
14 13 12 12 13 14 14 14 15 15 14 15 15 14 13 14 15 16 17 19 20 21 21 22 22 22 23 23 23 23 23 22 21 21 21 21 21 21 21 20 19 18
16 15 14 13 14 15 16 16 15 14 14 13 13 13 14 16 17 18 19 20 22 22 22 22 22 23 23 23 24 24 23 23 22 22 21 21 21 21 21 21 20 20
18 18 16 14 13 14 16 17 16 16 16 16 16 16 16 17 19 19 20 20 22 23 24 24 23 23 23 24 24 24 23 23 23 23 22 22 22 22 21 21 21 21
20 19 18 16 14 14 15 17 18 18 18 18 18 18 19 20 21 21 20 20 21 23 24 25 24 24 25 25 24 24 24 24 23 23 23 23 23 23 22 22 22 23
21 21 19 18 17 16 16 17 18 18 19 19 19 20 20 22 23 23 23 24 25 25 26 26 25 26 27 27 26 25 25 25 24 23 23 23 23 24 24 23 23 23
24 25 24 22 22 21 20 20 20 21 22 23 24 25 24 24 24 23 24 25 27 29 29 28 27 28 28 28 28 27 26 25 24 24 24 24 25 25 26 25 26 25
28 29 30 30 30 29 27 26 26 27 28 29 30 30 29 26 25 25 26 26 27 30 31 30 28 28 27 26 27 27 26 25 24 25 26 25 25 26 26 26 26 26
31 32 33 35 36 35 34 33 32 32 32 33 33 33 32 30 27 26 28 27 26 29 31 29 27 28 27 27 27 28 27 25 25 26 27 26 26 27 27 27 26 26
35 35 36 37 38 39 39 38 37 36 35 35 34 34 34 33 31 29 29 29 28 28 29 29 28 29 29 28 27 28 28 27 28 29 30 30 29 29 30 31 30 30
38 39 39 40 40 41 42 42 41 40 39 37 36 36 36 35 35 33 32 32 31 30 30 30 30 30 30 30 31 32 32 32 32 34 34 32 31 31 32 34 35 35
40 41 42 43 43 43 44 44 43 43 43 41 39 38 38 37 37 36 36 35 34 34 33 31 30 31 34 35 36 36 35 34 34 34 33 33 33 33 33 34 35 35
42 42 43 43 44 44 44 44 44 44 44 44 42 41 40 39 39 38 38 38 37 37 36 34 34 36 38 39 39 38 35 33 33 33 34 35 36 36 35 34 34 33
43 42 41 41 42 42 43 44 44 45 45 44 43 42 42 41 41 40 40 39 39 39 38 38 36 35 35 36 38 39 38 36 36 38 38 39 39 38 37 36 34 33
46 45 44 43 43 43 43 43 44 45 45 45 44 43 43 42 42 42 41 41 41 40 39 39 36 34 33 35 36 38 39 39 40 40 40 40 39 38 37 35 34 33
49 49 48 48 46 45 44 44 44 45 46 45 44 44 44 43 43 43 44 43 43 42 40 40 40 39 39 39 38 38 38 39 39 39 39 39 38 38 37 36 35 34
50 49 50 49 48 46 44 43 43 43 44 44 43 43 43 43 43 44 45 45 45 44 43 43 43 43 43 43 42 41 40 39 39 39 39 39 39 39 38 37 37 37
51 50 49 49 49 47 44 43 42 41 41 41 40 40 41 42 42 43 44 45 46 45 45 46 46 46 44 43 43 42 42 41 41 40 40 40 40 40 40 39 39 40
54 53 51 50 50 49 47 46 44 43 42 42 41 41 40 41 41 42 42 43 43 44 44 44 44 44 44 43 42 42 42 42 42 42 41 41 41 41 41 42 42 43
Wind_Direction
266 268 273 278 275 270 267 266 266 267 267 268 268 264 262 261 257 252 251 252 254 255 257 258 257 255 253 251 250 249 249 249 249 250 251 252 253 254 255 256 257 258
268 274 280 284 279 268 262 262 264 264 265 266 263 259 263 265 260 257 256 257 257 256 257 258 259 258 255 253 251 249 248 248 248 249 249 250 250 251 251 252 253 253
275 279 284 286 280 268 263 264 264 265 267 266 263 262 265 266 262 258 259 262 262 261 261 261 260 260 258 256 255 253 252 251 250 250 250 250 250 250 251 251 251 251
282 287 290 289 282 270 261 259 260 262 266 267 266 266 265 264 260 256 257 262 263 264 265 265 264 262 260 259 258 257 256 255 254 253 252 252 252 252 253 252 253 252
294 300 300 295 291 274 259 256 257 257 263 271 271 267 263 259 255 252 255 261 263 265 266 266 266 266 265 263 262 260 258 256 255 254 253 253 253 253 254 254 255 254
303 301 298 297 297 282 263 261 261 259 267 280 281 270 259 252 248 249 254 258 262 265 266 267 268 269 269 268 267 265 262 259 256 255 254 253 253 253 254 255 256 257
302 297 296 295 293 281 266 264 266 266 270 279 282 273 258 247 246 251 254 256 259 263 266 269 270 270 270 269 268 267 264 261 258 256 254 253 253 253 253 254 255 256
293 287 290 291 284 274 268 270 275 275 274 274 273 269 259 245 241 247 252 255 259 262 266 268 270 270 268 266 263 261 259 258 257 256 255 255 255 254 254 253 253 253
280 275 275 278 275 271 270 271 275 280 279 271 264 260 254 246 243 247 251 254 258 263 268 271 271 270 268 264 261 258 255 254 253 254 254 255 255 255 254 253 253 254
269 267 264 266 268 271 272 270 272 280 281 273 263 258 254 252 253 255 255 253 252 255 261 266 269 269 266 263 260 257 255 252 250 249 249 249 250 252 253 254 255 255
260 259 260 263 266 270 273 271 271 276 278 276 273 270 268 266 265 264 263 258 253 251 253 256 260 262 260 259 258 257 254 252 250 248 248 247 247 247 249 252 254 254
254 253 256 260 265 271 274 273 271 271 272 273 274 277 279 279 276 272 268 264 260 257 255 255 255 255 253 252 254 255 254 252 251 250 250 250 250 250 249 250 252 255
252 250 252 256 263 270 274 274 270 267 267 270 275 280 284 285 282 278 274 271 268 264 259 256 254 252 250 249 248 249 249 248 249 249 250 251 252 253 253 253 255 258
258 254 254 258 266 271 272 270 267 265 266 270 275 278 281 283 283 281 279 277 275 271 265 260 255 251 250 248 245 243 241 243 244 245 246 249 252 254 255 255 257 259
267 263 261 263 268 271 272 270 268 267 268 269 272 275 276 277 276 276 275 275 278 277 270 263 258 254 250 245 242 240 239 241 245 248 249 252 254 255 256 257 259 262
268 267 266 266 267 270 272 273 271 270 269 269 269 270 272 272 269 268 268 270 276 277 272 266 259 251 246 243 241 241 240 242 247 251 253 255 257 257 258 259 260 263
268 267 266 265 266 268 270 272 272 271 270 269 267 266 268 269 267 264 262 262 265 268 269 268 261 249 245 248 249 250 251 252 253 254 255 256 258 259 260 260 261 264
268 267 265 264 263 264 266 268 269 269 269 267 266 265 265 265 265 263 261 258 259 260 260 263 263 253 246 249 252 254 256 258 258 260 259 257 259 262 264 263 264 266
270 269 266 264 262 262 262 264 265 265 266 265 265 263 262 262 261 260 259 257 257 258 258 258 257 250 246 249 252 253 254 256 258 259 257 256 260 265 266 264 265 267
272 270 267 264 263 262 262 262 263 263 263 264 263 262 261 261 260 259 258 256 254 255 257 257 255 252 253 256 257 255 256 258 257 256 255 256 261 264 264 263 264 268
272 269 266 264 264 264 263 263 263 263 263 263 262 261 260 261 260 259 257 256 254 253 254 256 258 258 257 256 255 255 257 260 258 257 259 261 264 264 263 262 264 268
270 267 264 264 265 265 264 263 263 262 262 261 260 260 259 259 258 257 256 255 254 254 254 254 254 253 251 250 251 253 255 257 257 258 260 262 263 262 261 262 264 268
268 266 265 265 264 263 262 263 262 261 260 259 258 258 258 257 255 254 254 254 254 255 256 254 252 251 252 253 255 255 256 256 257 258 259 259 259 258 259 261 264 268
265 265 265 264 262 261 261 261 260 259 259 258 257 256 256 255 255 254 253 253 254 255 254 254 254 255 256 256 256 257 257 257 257 257 257 256 256 256 257 260 263 267
266 265 264 262 260 259 258 257 258 259 259 259 258 257 256 256 255 255 254 254 255 255 255 254 255 257 257 255 255 255 256 257 258 258 257 256 255 255 257 260 263 268
266 266 263 261 260 258 255 254 256 258 259 259 259 257 256 256 255 255 255 256 256 256 257 257 258 257 256 255 254 254 254 255 257 258 258 258 258 258 260 262 265 270